Location: Gerlach
(40.6516°N, 119.3568°W)
Time: 17:00:32
(UTC-08:00)

RS-15 - Visible Passes

Search period start: 02 February 2023 00:00
Search period end: 12 February 2023 00:00
Orbit: 1882 x 2162 km, 64.8° (Epoch: 02 February)

Date Brightness Start Highest point End Pass type
(mag) Time Alt. Az. Time Alt. Az. Time Alt. Az.
02 Feb 9.4 01:16:44 28° NE 01:16:44 28° NE 01:21:18 10° NE visible
02 Feb 8.7 03:24:29 39° NNW 03:24:29 39° NNW 03:33:59 10° NNE visible
02 Feb 9.4 05:32:13 13° NW 05:39:47 22° N 05:48:36 10° NE visible
03 Feb 9.6 00:41:56 21° NE 00:41:56 21° NE 00:45:03 10° NE visible
03 Feb 8.8 02:49:40 41° N 02:49:40 41° N 02:57:51 10° NNE visible
03 Feb 9.3 04:57:25 18° NW 05:02:33 23° NNW 05:11:42 10° NE visible
04 Feb 9.9 00:07:06 15° NE 00:07:06 15° NE 00:08:41 10° NE visible
04 Feb 8.9 02:14:51 38° NNE 02:14:51 38° NNE 02:21:46 10° NNE visible
04 Feb 9.1 04:22:35 24° NW 04:25:24 26° NNW 04:35:03 10° NNE visible
04 Feb 9.4 06:34:23 10° NW 06:43:47 24° NNE 06:52:52 10° ENE visible
05 Feb 9.2 01:40:00 34° NNE 01:40:00 34° NNE 01:45:41 10° NNE visible
05 Feb 9.0 03:47:44 29° NNW 03:48:22 29° NNW 03:58:36 10° NNE visible
05 Feb 9.5 05:57:34 10° NW 06:06:35 22° N 06:15:22 10° ENE visible
06 Feb 9.4 01:05:07 28° NNE 01:05:07 28° NNE 01:09:34 10° NNE visible
06 Feb 9.0 03:12:52 33° NNW 03:12:52 33° NNW 03:22:18 10° NNE visible
06 Feb 9.5 05:20:36 10° NW 05:29:20 22° N 05:37:59 10° NE visible
07 Feb 9.6 00:30:14 22° NE 00:30:14 22° NE 00:33:25 10° NE visible
07 Feb 9.0 02:37:58 35° N 02:37:58 35° N 02:46:05 10° NNE visible
07 Feb 9.4 04:45:42 15° NW 04:52:04 22° N 05:00:49 10° NE visible
07 Feb 9.8 23:55:19 16° NE 23:55:19 16° NE 23:57:11 10° NE visible
08 Feb 9.1 02:03:03 35° N 02:03:03 35° N 02:09:58 10° NNE visible
08 Feb 9.3 04:10:47 20° NW 04:14:49 23° NNW 04:23:54 10° NE visible
08 Feb 9.4 06:23:09 10° NNW 06:33:06 27° NNE 06:42:41 10° E visible
08 Feb 10.0 23:20:23 11° NE 23:20:23 11° NE 23:20:50 10° NE visible
09 Feb 9.2 01:28:08 32° NNE 01:28:08 32° NNE 01:33:52 10° NNE visible
09 Feb 9.2 03:35:51 25° NNW 03:37:40 25° NNW 03:47:13 10° NNE visible
09 Feb 9.5 05:46:35 10° NW 05:56:03 24° NNE 06:05:10 10° ENE visible
10 Feb 9.4 00:53:10 28° NNE 00:53:10 28° NNE 00:57:47 10° NNE visible
10 Feb 9.1 03:00:54 29° NNW 03:00:54 29° NNW 03:10:45 10° NNE visible
10 Feb 9.5 05:09:48 10° NW 05:18:52 23° N 05:27:40 10° ENE visible
11 Feb 9.5 00:18:12 23° NNE 00:18:12 23° NNE 00:21:41 10° NNE visible
11 Feb 9.1 02:25:56 31° NNW 02:25:56 31° NNW 02:34:25 10° NNE visible
11 Feb 9.5 04:33:39 12° NW 04:41:37 22° N 04:50:15 10° NE visible
11 Feb 9.7 23:43:13 18° NE 23:43:13 18° NE 23:45:33 10° NE visible
